,,Stat6,,Stat2,,Stat8,,Stat9,,Stat10,,Wind1,,Wind1,
time,status,PA1M_AVG,status,PR1M_SUM,status,RH1M_AVG,status,SR1M_AVG,status,TA1M_AVG,status,W1dAve1m,status,W1sAve1m,
2004-06-04, 00:00:00,VALID,919.552,VALID,0,VALID,99.1241,VALID,0.0509425,VALID,19.9412,VALID,20,VALID,0.741122,
2004-06-04, 00:01:00,VALID,919.547,VALID,0,VALID,99.1928,VALID,0.0169808,VALID,19.9412,VALID,13,VALID,0.133384,
2004-06-04, 00:02:00,VALID,919.54,VALID,0,VALID,99.2169,VALID,0.0339617,VALID,19.9513,VALID,13,VALID,0.326982,
2004-06-04, 00:03:00,VALID,919.522,VALID,0,VALID,99.2284,VALID,0.0169808,VALID,19.9548,VALID,13,VALID,0.358648,
2004-06-04, 00:04:00,VALID,919.513,VALID,0,VALID,99.2004,VALID,0.0169808,VALID,19.9513,VALID,13,VALID,0.358041,
2004-06-04, 00:05:00,VALID,919.477,VALID,0,VALID,99.0809,VALID,0,VALID,19.9422,VALID,33,VALID,0.564546,
2004-06-04, 00:06:00,VALID,919.482,VALID,0,VALID,99.0237,VALID,0.0169808,VALID,19.9258,VALID,22,VALID,1.14971,
2004-06-04, 00:07:00,VALID,919.456,VALID,0,VALID,99.0249,VALID,0.0339617,VALID,19.9029,VALID,19,VALID,0.431686,
2004-06-04, 00:08:00,VALID,919.45,VALID,0,VALID,99.0682,VALID,0.0169808,VALID,19.9061,VALID,26,VALID,0.141406,
2004-06-04, 00:09:00,VALID,919.456,VALID,0,VALID,99.0249,VALID,0.0339617,VALID,19.9032,VALID,26,VALID,0,
2004-06-04, 00:10:00,VALID,919.468,VALID,0,VALID,98.983,VALID,0.0509425,VALID,19.8835,VALID,26,VALID,0.00241815,
2004-06-04, 00:11:00,VALID,919.474,VALID,0,VALID,99.0122,VALID,0.0679233,VALID,19.8838,VALID,26,VALID,0.274182,
2004-06-04, 00:12:00,VALID,919.476,VALID,0,VALID,99.0936,VALID,0.0339617,VALID,19.8808,VALID,47,VALID,0.322917,
2004-06-04, 00:13:00,VALID,919.494,VALID,0,VALID,99.086,VALID,0.0169808,VALID,19.887,VALID,25,VALID,0.783156,
2004-06-04, 00:14:00,VALID,919.504,VALID,0,VALID,99.1089,VALID,0.0169808,VALID,19.8741,VALID,22,VALID,0.793945,
2004-06-04, 00:15:00,VALID,919.499,VALID,0,VALID,99.0313,VALID,0.0509425,VALID,19.8577,VALID,26,VALID,0.413867,
2004-06-04, 00:16:00,VALID,919.493,VALID,0,VALID,99.0504,VALID,0.0339617,VALID,19.8607,VALID,26,VALID,0.0486328,
2004-06-04, 00:17:00,VALID,919.483,VALID,0,VALID,99.0326,VALID,0.0339617,VALID,19.8376,VALID,26,VALID,0.0357639,
2004-06-04, 00:18:00,VALID,919.471,VALID,0,VALID,99.002,VALID,0.0339617,VALID,19.8383,VALID,39,VALID,0.403819,
2004-06-04, 00:19:00,VALID,919.454,VALID,0,VALID,99.0415,VALID,0.0169808,VALID,19.8254,VALID,353,VALID,0.197621,
2004-06-04, 00:20:00,VALID,919.447,VALID,0,VALID,99.1318,VALID,-0.0509425,VALID,19.8336,VALID,350,VALID,0.325591,
2004-06-04, 00:21:00,VALID,919.429,VALID,0,VALID,99.1,VALID,-0.0509425,VALID,19.8207,VALID,347,VALID,0,
2004-06-04, 00:22:00,VALID,919.431,VALID,0,VALID,99.1012,VALID,-0.0679233,VALID,19.8013,VALID,347,VALID,0,
2004-06-04, 00:23:00,VALID,919.445,VALID,0,VALID,99.147,VALID,-0.101885,VALID,19.7981,VALID,347,VALID,0.115916,
2004-06-04, 00:24:00,VALID,919.443,VALID,0,VALID,99.222,VALID,-0.101885,VALID,19.8048,VALID,347,VALID,0.0679506,
2004-06-04, 00:25:00,VALID,919.441,VALID,0,VALID,99.1724,VALID,-0.0849042,VALID,19.8083,VALID,358,VALID,0.151634,
2004-06-04, 00:26:00,VALID,919.436,VALID,0,VALID,99.0758,VALID,-0.0679233,VALID,19.772,VALID,223,VALID,0.438227,
2004-06-04, 00:27:00,VALID,919.445,VALID,0,VALID,99.1674,VALID,-0.0679233,VALID,19.7757,VALID,210,VALID,0.190662,
2004-06-04, 00:28:00,VALID,919.431,VALID,0,VALID,99.2297,VALID,-0.0509425,VALID,19.7631,VALID,252,VALID,0.211664,
2004-06-04, 00:29:00,VALID,919.415,VALID,0,VALID,99.3225,VALID,-0.0849042,VALID,19.7569,VALID,320,VALID,0.394727,
2004-06-04, 00:30:00,VALID,919.402,VALID,0,VALID,99.4051,VALID,-0.0679233,VALID,19.7564,VALID,48,VALID,0.328711,
2004-06-04, 00:31:00,VALID,919.414,VALID,0,VALID,99.47,VALID,-0.0339617,VALID,19.7623,VALID,37,VALID,0.306176,
2004-06-04, 00:32:00,VALID,919.384,VALID,0,VALID,99.3797,VALID,-0.0679233,VALID,19.7462,VALID,309,VALID,0.456287,
2004-06-04, 00:33:00,VALID,919.367,VALID,0,VALID,99.2805,VALID,-0.0509425,VALID,19.7238,VALID,294,VALID,0.299419,
2004-06-04, 00:34:00,VALID,919.356,VALID,0,VALID,99.4039,VALID,-0.0679233,VALID,19.7367,VALID,324,VALID,0.653125,
2004-06-04, 00:35:00,VALID,919.323,VALID,0,VALID,99.3568,VALID,-0.0679233,VALID,19.7238,VALID,32,VALID,0.636533,
2004-06-04, 00:36:00,VALID,919.296,VALID,0,VALID,99.4408,VALID,-0.0849042,VALID,19.7206,VALID,358,VALID,0.93418,
2004-06-04, 00:37:00,VALID,919.287,VALID,0,VALID,99.5056,VALID,-0.0849042,VALID,19.7179,VALID,252,VALID,0.318784,
2004-06-04, 00:38:00,VALID,919.27,VALID,0,VALID,99.4878,VALID,-0.0849042,VALID,19.7012,VALID,211,VALID,0.123001,
2004-06-04, 00:39:00,VALID,919.246,VALID,0,VALID,99.512,VALID,-0.0679233,VALID,19.6948,VALID,212,VALID,0.113636,
2004-06-04, 00:40:00,VALID,919.234,VALID,0,VALID,99.587,VALID,-0.0679233,VALID,19.6985,VALID,218,VALID,0.179167,
2004-06-04, 00:41:00,VALID,919.225,VALID,0,VALID,99.6709,VALID,-0.0849042,VALID,19.6978,VALID,218,VALID,0.194586,
2004-06-04, 00:42:00,VALID,919.222,VALID,0,VALID,99.7141,VALID,-0.0679233,VALID,19.7139,VALID,109,VALID,0.542225,
2004-06-04, 00:43:00,VALID,919.217,VALID,0,VALID,99.7612,VALID,-0.0679233,VALID,19.7276,VALID,30,VALID,0.405506,
2004-06-04, 00:44:00,VALID,919.199,VALID,0,VALID,99.6506,VALID,-0.0679233,VALID,19.7283,VALID,31,VALID,0.89226,
2004-06-04, 00:45:00,VALID,919.181,VALID,0,VALID,99.6493,VALID,-0.101885,VALID,19.7243,VALID,55,VALID,0.443403,
2004-06-04, 00:46:00,VALID,919.162,VALID,0,VALID,99.5794,VALID,-0.0679233,VALID,19.6955,VALID,64,VALID,0.668229,
2004-06-04, 00:47:00,VALID,919.128,VALID,0,VALID,99.3823,VALID,-0.0679233,VALID,19.6657,VALID,50,VALID,0.761303,
2004-06-04, 00:48:00,VALID,919.127,VALID,0,VALID,99.4357,VALID,-0.0849042,VALID,19.6401,VALID,279,VALID,0.717297,
2004-06-04, 00:49:00,VALID,919.124,VALID,0,VALID,99.5221,VALID,-0.0849042,VALID,19.6468,VALID,225,VALID,0.446039,
2004-06-04, 00:50:00,VALID,919.104,VALID,0,VALID,99.5781,VALID,-0.0849042,VALID,19.6401,VALID,222,VALID,0.237282,
2004-06-04, 00:51:00,VALID,919.094,VALID,0,VALID,99.601,VALID,-0.0849042,VALID,19.653,VALID,20,VALID,1.2065,
2004-06-04, 00:52:00,VALID,919.084,VALID,0,VALID,99.6722,VALID,-0.0679233,VALID,19.6431,VALID,4,VALID,0.687682,
2004-06-04, 00:53:00,VALID,919.068,VALID,0,VALID,99.6518,VALID,-0.101885,VALID,19.6434,VALID,131,VALID,0.679315,
2004-06-04, 00:54:00,VALID,919.07,VALID,0,VALID,99.7281,VALID,-0.0339617,VALID,19.6436,VALID,15,VALID,0.923147,
2004-06-04, 00:55:00,VALID,919.05,VALID,0,VALID,99.7675,VALID,-0.0849042,VALID,19.6501,VALID,48,VALID,0.623094,
2004-06-04, 00:56:00,VALID,919.031,VALID,0,VALID,99.7866,VALID,-0.101885,VALID,19.6568,VALID,18,VALID,1.10547,
2004-06-04, 00:57:00,VALID,919.008,VALID,0,VALID,99.8744,VALID,-0.0679233,VALID,19.6764,VALID,31,VALID,0.57298,
2004-06-04, 00:58:00,VALID,919.01,VALID,0,VALID,99.9252,VALID,-0.0509425,VALID,19.6886,VALID,21,VALID,0.713299,
2004-06-04, 00:59:00,VALID,918.983,VALID,0,VALID,99.9151,VALID,-0.0849042,VALID,19.6883,VALID,340,VALID,0.939808,
2004-06-04, 01:00:00,VALID,918.988,VALID,0,VALID,99.8985,VALID,-0.0849042,VALID,19.6881,VALID,14,VALID,0.981105,
2004-06-04, 01:01:00,VALID,918.982,VALID,0,VALID,99.8438,VALID,-0.0679233,VALID,19.6828,VALID,14,VALID,0.366461,
2004-06-04, 01:02:00,VALID,918.96,VALID,0,VALID,99.7752,VALID,-0.0849042,VALID,19.6761,VALID,15,VALID,0.475977,
2004-06-04, 01:03:00,VALID,918.947,VALID,0,VALID,99.7548,VALID,-0.0849042,VALID,19.66,VALID,15,VALID,0.342797,
2004-06-04, 01:04:00,VALID,918.943,VALID,0,VALID,99.7523,VALID,-0.0849042,VALID,19.6565,VALID,2,VALID,0.285256,
2004-06-04, 01:05:00,VALID,918.935,VALID,0,VALID,99.7154,VALID,-0.0339617,VALID,19.6394,VALID,349,VALID,0.274858,
2004-06-04, 01:06:00,VALID,918.927,VALID,0,VALID,99.6442,VALID,0.0169808,VALID,19.6128,VALID,174,VALID,0.743862,
2004-06-04, 01:07:00,VALID,918.927,VALID,0,VALID,99.6073,VALID,0.0339617,VALID,19.6034,VALID,243,VALID,0.479102,
2004-06-04, 01:08:00,VALID,918.908,VALID,0,VALID,99.5666,VALID,0,VALID,19.5805,VALID,248,VALID,1.2474,
2004-06-04, 01:09:00,VALID,918.898,VALID,0,VALID,99.5997,VALID,0,VALID,19.5582,VALID,300,VALID,0.804506,
2004-06-04, 01:10:00,VALID,918.864,VALID,0,VALID,99.8197,VALID,0,VALID,19.5875,VALID,7,VALID,0.695694,
2004-06-04, 01:11:00,VALID,918.864,VALID,0,VALID,99.8235,VALID,0.0339617,VALID,19.6101,VALID,20,VALID,0.503906,
2004-06-04, 01:12:00,VALID,918.849,VALID,0,VALID,99.6976,VALID,0,VALID,19.5771,VALID,58,VALID,0.283253,
2004-06-04, 01:13:00,VALID,918.839,VALID,0,VALID,99.6925,VALID,0.0339617,VALID,19.578,VALID,77,VALID,0.0736607,
2004-06-04, 01:14:00,VALID,918.805,VALID,0,VALID,99.7065,VALID,0,VALID,19.5711,VALID,90,VALID,0.339935,
2004-06-04, 01:15:00,VALID,918.786,VALID,0,VALID,99.7383,VALID,0.0169808,VALID,19.581,VALID,218,VALID,0.745908,
2004-06-04, 01:16:00,VALID,918.767,VALID,0,VALID,99.6315,VALID,0.0339617,VALID,19.5448,VALID,242,VALID,0.986471,
2004-06-04, 01:17:00,VALID,918.74,VALID,0,VALID,99.5348,VALID,0.0169808,VALID,19.51,VALID,249,VALID,1.20313,
2004-06-04, 01:18:00,VALID,918.724,VALID,0,VALID,99.5781,VALID,0.0339617,VALID,19.4901,VALID,243,VALID,0.71596,
2004-06-04, 01:19:00,VALID,918.703,VALID,0,VALID,99.6468,VALID,0.0169808,VALID,19.4938,VALID,248,VALID,0.433507,
2004-06-04, 01:20:00,VALID,918.688,VALID,0,VALID,99.6277,VALID,-0.0509425,VALID,19.4819,VALID,242,VALID,1.60007,
2004-06-04, 01:21:00,VALID,918.674,VALID,0,VALID,99.5501,VALID,-0.101885,VALID,19.4792,VALID,251,VALID,1.27894,
2004-06-04, 01:22:00,VALID,918.662,VALID,0,VALID,99.4636,VALID,-0.101885,VALID,19.4628,VALID,259,VALID,1.24498,
2004-06-04, 01:23:00,VALID,918.642,VALID,0,VALID,99.5031,VALID,-0.0849042,VALID,19.466,VALID,327,VALID,0.459847,
2004-06-04, 01:24:00,VALID,918.628,VALID,0,VALID,99.5666,VALID,-0.0849042,VALID,19.4822,VALID,214,VALID,0.460751,
2004-06-04, 01:25:00,VALID,918.624,VALID,0,VALID,99.6417,VALID,-0.101885,VALID,19.4948,VALID,268,VALID,0.0773983,
2004-06-04, 01:26:00,VALID,918.601,VALID,0,VALID,99.6607,VALID,-0.0339617,VALID,19.5008,VALID,268,VALID,0,
2004-06-04, 01:27:00,VALID,918.596,VALID,0,VALID,99.676,VALID,-0.0679233,VALID,19.514,VALID,269,VALID,0.335007,
2004-06-04, 01:28:00,VALID,918.583,VALID,0,VALID,99.5972,VALID,-0.0509425,VALID,19.5013,VALID,317,VALID,0.555618,
2004-06-04, 01:29:00,VALID,918.57,VALID,0,VALID,99.5717,VALID,-0.0849042,VALID,19.4981,VALID,332,VALID,0.356105,
2004-06-04, 01:30:00,VALID,918.564,VALID,0,VALID,99.5094,VALID,-0.0679233,VALID,19.4889,VALID,235,VALID,0.564596,
2004-06-04, 01:31:00,VALID,918.54,VALID,0,VALID,99.5145,VALID,-0.101885,VALID,19.4755,VALID,254,VALID,0.147675,
2004-06-04, 01:32:00,VALID,918.531,VALID,0,VALID,99.5463,VALID,-0.0849042,VALID,19.4886,VALID,20,VALID,0.527798,
2004-06-04, 01:33:00,VALID,918.519,VALID,0,VALID,99.6226,VALID,-0.0849042,VALID,19.4981,VALID,25,VALID,0.129542,
2004-06-04, 01:34:00,VALID,918.498,VALID,0,VALID,99.6849,VALID,-0.0849042,VALID,19.5313,VALID,25,VALID,0.118676,
2004-06-04, 01:35:00,VALID,918.472,VALID,0,VALID,99.6709,VALID,0,VALID,19.5393,VALID,33,VALID,0.576215,
2004-06-04, 01:36:00,VALID,918.47,VALID,0,VALID,99.5565,VALID,0.0169808,VALID,19.5192,VALID,50,VALID,0.68006,
2004-06-04, 01:37:00,VALID,918.462,VALID,0,VALID,99.4878,VALID,0.0169808,VALID,19.5127,VALID,53,VALID,0.294829,
2004-06-04, 01:38:00,VALID,918.463,VALID,0,VALID,99.4878,VALID,0.0169808,VALID,19.513,VALID,53,VALID,0.070122,
2004-06-04, 01:39:00,VALID,918.467,VALID,0,VALID,99.498,VALID,0.0339617,VALID,19.5095,VALID,53,VALID,0,
2004-06-04, 01:40:00,VALID,918.451,VALID,0,VALID,99.4916,VALID,0.0509425,VALID,19.5227,VALID,53,VALID,0.0644055,
2004-06-04, 01:41:00,VALID,918.436,VALID,0,VALID,99.5018,VALID,0.0339617,VALID,19.5259,VALID,53,VALID,0,
2004-06-04, 01:42:00,VALID,918.434,VALID,0,VALID,99.5183,VALID,0.0339617,VALID,19.5425,VALID,53,VALID,0.181216,
2004-06-04, 01:43:00,VALID,918.422,VALID,0,VALID,99.4789,VALID,0.0339617,VALID,19.5356,VALID,35,VALID,0.399858,
2004-06-04, 01:44:00,VALID,918.419,VALID,0,VALID,99.5031,VALID,0,VALID,19.5395,VALID,29,VALID,0.125178,
2004-06-04, 01:45:00,VALID,918.406,VALID,0,VALID,99.4751,VALID,0,VALID,19.5428,VALID,29,VALID,0.290128,
2004-06-04, 01:46:00,VALID,918.38,VALID,0,VALID,99.5031,VALID,0.0169808,VALID,19.5487,VALID,29,VALID,0.676669,
2004-06-04, 01:47:00,VALID,918.368,VALID,0,VALID,99.5145,VALID,0.0169808,VALID,19.5517,VALID,29,VALID,0.255149,
2004-06-04, 01:48:00,VALID,918.353,VALID,0,VALID,99.4764,VALID,0,VALID,19.5487,VALID,268,VALID,0.197443,
2004-06-04, 01:49:00,VALID,918.352,VALID,0,VALID,99.4916,VALID,0,VALID,19.5455,VALID,357,VALID,0.71439,
2004-06-04, 01:50:00,VALID,918.318,VALID,0,VALID,99.5196,VALID,0.0169808,VALID,19.5428,VALID,27,VALID,0.757422,
2004-06-04, 01:51:00,VALID,918.306,VALID,0,VALID,99.5285,VALID,0.0339617,VALID,19.5328,VALID,18,VALID,0.767857,
2004-06-04, 01:52:00,VALID,918.287,VALID,0,VALID,99.5298,VALID,0.0169808,VALID,19.5197,VALID,20,VALID,0.632241,
2004-06-04, 01:53:00,VALID,918.265,VALID,0,VALID,99.5717,VALID,0,VALID,19.5001,VALID,22,VALID,0.652004,
2004-06-04, 01:54:00,VALID,918.251,VALID,0,VALID,99.5997,VALID,0.0169808,VALID,19.5169,VALID,26,VALID,0.706473,
2004-06-04, 01:55:00,VALID,918.22,VALID,0,VALID,99.7154,VALID,0,VALID,19.5266,VALID,22,VALID,0.80599,
2004-06-04, 01:56:00,VALID,918.223,VALID,0,VALID,99.7904,VALID,0.0169808,VALID,19.546,VALID,20,VALID,0.734575,
2004-06-04, 01:57:00,VALID,918.215,VALID,0,VALID,99.8388,VALID,0.0169808,VALID,19.5584,VALID,11,VALID,1.26181,
2004-06-04, 01:58:00,VALID,918.222,VALID,0,VALID,99.7841,VALID,0.0339617,VALID,19.549,VALID,16,VALID,1.1263,
2004-06-04, 01:59:00,VALID,918.225,VALID,0,VALID,99.7192,VALID,0.0339617,VALID,19.5291,VALID,11,VALID,0.983803,
2004-06-04, 02:00:00,VALID,918.232,VALID,0,VALID,99.7625,VALID,0,VALID,19.5164,VALID,12,VALID,0.811435,
2004-06-04, 02:01:00,VALID,918.241,VALID,0,VALID,99.8349,VALID,0.0339617,VALID,19.5261,VALID,9,VALID,0.495808,
2004-06-04, 02:02:00,VALID,918.247,VALID,0,VALID,99.8362,VALID,0.0169808,VALID,19.5194,VALID,352,VALID,0.237909,
2004-06-04, 02:03:00,VALID,918.262,VALID,0,VALID,99.8502,VALID,0,VALID,19.5227,VALID,352,VALID,0.227083,
2004-06-04, 02:04:00,VALID,918.253,VALID,0,VALID,99.8756,VALID,0.0169808,VALID,19.5328,VALID,352,VALID,0.0171131,
2004-06-04, 02:05:00,VALID,918.25,VALID,0,VALID,99.8731,VALID,0,VALID,19.5303,VALID,352,VALID,0.074314,
2004-06-04, 02:06:00,VALID,918.232,VALID,0,VALID,99.8884,VALID,0,VALID,19.5366,VALID,11,VALID,0.599019,
2004-06-04, 02:07:00,VALID,918.216,VALID,0,VALID,99.9316,VALID,-0.0169808,VALID,19.547,VALID,21,VALID,0.209847,
2004-06-04, 02:08:00,VALID,918.189,VALID,0,VALID,99.9392,VALID,0,VALID,19.5497,VALID,87,VALID,0.246982,
2004-06-04, 02:09:00,VALID,918.187,VALID,0,VALID,99.882,VALID,0,VALID,19.5564,VALID,124,VALID,0.272294,
2004-06-04, 02:10:00,VALID,918.19,VALID,0,VALID,99.8464,VALID,-0.0169808,VALID,19.5269,VALID,124,VALID,0.057492,
2004-06-04, 02:11:00,VALID,918.18,VALID,0,VALID,99.8909,VALID,-0.0339617,VALID,19.5301,VALID,105,VALID,0.0861235,
2004-06-04, 02:12:00,VALID,918.193,VALID,0,VALID,99.943,VALID,0,VALID,19.5433,VALID,21,VALID,0.364524,
2004-06-04, 02:13:00,VALID,918.188,VALID,0,VALID,99.9697,VALID,-0.0169808,VALID,19.5562,VALID,21,VALID,0.0541667,
2004-06-04, 02:14:00,VALID,918.194,VALID,0,VALID,99.971,VALID,-0.0679233,VALID,19.5532,VALID,21,VALID,0.205487,
2004-06-04, 02:15:00,VALID,918.218,VALID,0,VALID,99.9074,VALID,-0.0169808,VALID,19.54,VALID,21,VALID,0.138338,
2004-06-04, 02:16:00,VALID,918.226,VALID,0,VALID,99.9201,VALID,0,VALID,19.5366,VALID,21,VALID,0.00545058,
2004-06-04, 02:17:00,VALID,918.218,VALID,0,VALID,99.9545,VALID,-0.0169808,VALID,19.546,VALID,21,VALID,0,
2004-06-04, 02:18:00,VALID,918.227,VALID,0,VALID,99.9608,VALID,-0.0169808,VALID,19.5621,VALID,21,VALID,0,
2004-06-04, 02:19:00,VALID,918.207,VALID,0,VALID,99.9507,VALID,0,VALID,19.5751,VALID,21,VALID,0,
2004-06-04, 02:20:00,VALID,918.188,VALID,0,VALID,99.9062,VALID,0,VALID,19.5818,VALID,21,VALID,0,
2004-06-04, 02:21:00,VALID,918.18,VALID,0,VALID,99.9049,VALID,0,VALID,19.5885,VALID,21,VALID,0.348656,
2004-06-04, 02:22:00,VALID,918.185,VALID,0,VALID,99.9252,VALID,-0.0169808,VALID,19.6049,VALID,21,VALID,0.565407,
2004-06-04, 02:23:00,VALID,918.18,VALID,0,VALID,99.9507,VALID,0.0169808,VALID,19.614,VALID,21,VALID,0.601935,
2004-06-04, 02:24:00,VALID,918.173,VALID,0,VALID,99.9405,VALID,0,VALID,19.6108,VALID,21,VALID,0.5754,
2004-06-04, 02:25:00,VALID,918.181,VALID,0,VALID,99.9608,VALID,-0.0169808,VALID,19.6138,VALID,25,VALID,0.858467,
2004-06-04, 02:26:00,VALID,918.191,VALID,0,VALID,99.9845,VALID,0,VALID,19.6374,VALID,24,VALID,0.308321,
2004-06-04, 02:27:00,VALID,918.185,VALID,0,VALID,99.9735,VALID,0.0169808,VALID,19.62,VALID,16,VALID,0.346354,
2004-06-04, 02:28:00,VALID,918.198,VALID,0,VALID,99.9367,VALID,0,VALID,19.614,VALID,7,VALID,0.129586,
2004-06-04, 02:29:00,VALID,918.175,VALID,0,VALID,99.9189,VALID,0,VALID,19.6044,VALID,7,VALID,0,
2004-06-04, 02:30:00,VALID,918.156,VALID,0,VALID,99.8985,VALID,-0.0169808,VALID,19.6009,VALID,7,VALID,0.428779,
2004-06-04, 02:31:00,VALID,918.116,VALID,0,VALID,99.9176,VALID,0,VALID,19.5914,VALID,9,VALID,0.908913,
2004-06-04, 02:32:00,VALID,918.102,VALID,0,VALID,99.9809,VALID,-0.0339617,VALID,19.6014,VALID,23,VALID,0.754616,
2004-06-04, 02:33:00,VALID,918.088,VALID,0,VALID,100,VALID,0,VALID,19.6175,VALID,26,VALID,0.695122,
2004-06-04, 02:34:00,VALID,918.077,VALID,0,VALID,100,VALID,-0.0339617,VALID,19.6138,VALID,22,VALID,0.890451,
2004-06-04, 02:35:00,VALID,918.07,VALID,0,VALID,100,VALID,0,VALID,19.614,VALID,21,VALID,0.651456,
2004-06-04, 02:36:00,VALID,918.055,VALID,0,VALID,99.9967,VALID,-0.0169808,VALID,19.6073,VALID,21,VALID,0.39897,
2004-06-04, 02:37:00,VALID,918.044,VALID,0,VALID,99.9596,VALID,0,VALID,19.6081,VALID,18,VALID,0.954942,
2004-06-04, 02:38:00,VALID,918.029,VALID,0,VALID,99.8591,VALID,-0.0169808,VALID,19.5751,VALID,17,VALID,1.32404,
2004-06-04, 02:39:00,VALID,918.019,VALID,0,VALID,99.7536,VALID,-0.0169808,VALID,19.5525,VALID,6,VALID,1.33984,
2004-06-04, 02:40:00,VALID,918.004,VALID,0,VALID,99.6595,VALID,0,VALID,19.5462,VALID,11,VALID,0.85556,
2004-06-04, 02:41:00,VALID,917.961,VALID,0,VALID,99.6747,VALID,0.0169808,VALID,19.5398,VALID,28,VALID,1.56898,
2004-06-04, 02:42:00,VALID,917.95,VALID,0,VALID,99.6874,VALID,0,VALID,19.5529,VALID,24,VALID,1.37155,
2004-06-04, 02:43:00,VALID,917.935,VALID,0,VALID,99.6633,VALID,-0.0679233,VALID,19.5266,VALID,349,VALID,1.10342,
2004-06-04, 02:44:00,VALID,917.898,VALID,0,VALID,99.6137,VALID,-0.0169808,VALID,19.5177,VALID,3,VALID,1.10485,
2004-06-04, 02:45:00,VALID,917.867,VALID,0,VALID,99.7091,VALID,-0.0169808,VALID,19.5072,VALID,24,VALID,1.44713,
2004-06-04, 02:46:00,VALID,917.841,VALID,0,VALID,99.7294,VALID,-0.0339617,VALID,19.5048,VALID,30,VALID,1.08166,
2004-06-04, 02:47:00,VALID,917.835,VALID,0,VALID,99.7167,VALID,-0.0509425,VALID,19.4948,VALID,6,VALID,1.09947,
2004-06-04, 02:48:00,VALID,917.836,VALID,0,VALID,99.6137,VALID,-0.0339617,VALID,19.4658,VALID,317,VALID,0.744913,
2004-06-04, 02:49:00,VALID,917.832,VALID,0,VALID,99.6188,VALID,-0.0509425,VALID,19.4755,VALID,354,VALID,0.964026,
2004-06-04, 02:50:00,VALID,917.852,VALID,0,VALID,99.5857,VALID,-0.0169808,VALID,19.4787,VALID,14,VALID,1.05352,
2004-06-04, 02:51:00,VALID,917.844,VALID,0,VALID,99.5069,VALID,0,VALID,19.4787,VALID,16,VALID,1.20694,
2004-06-04, 02:52:00,VALID,917.853,VALID,0,VALID,99.4649,VALID,0,VALID,19.4561,VALID,11,VALID,1.38129,
2004-06-04, 02:53:00,VALID,917.853,VALID,0,VALID,99.559,VALID,-0.0169808,VALID,19.4466,VALID,23,VALID,0.830357,
2004-06-04, 02:54:00,VALID,917.858,VALID,0,VALID,99.6048,VALID,-0.0169808,VALID,19.4429,VALID,12,VALID,0.945494,
2004-06-04, 02:55:00,VALID,917.837,VALID,0,VALID,99.5883,VALID,-0.0169808,VALID,19.4235,VALID,12,VALID,1.19496,
2004-06-04, 02:56:00,VALID,917.826,VALID,0,VALID,99.587,VALID,0,VALID,19.4168,VALID,12,VALID,0.834484,
2004-06-04, 02:57:00,VALID,917.793,VALID,0,VALID,99.648,VALID,0,VALID,19.4238,VALID,22,VALID,0.791969,
2004-06-04, 02:58:00,VALID,917.787,VALID,0,VALID,99.6556,VALID,0,VALID,19.4136,VALID,13,VALID,1.11142,
2004-06-04, 02:59:00,VALID,917.756,VALID,0,VALID,99.7205,VALID,0,VALID,19.4106,VALID,10,VALID,0.842391,
2004-06-04, 03:00:00,VALID,917.743,VALID,0,VALID,99.7485,VALID,0,VALID,19.4111,VALID,4,VALID,0.852805,
2004-06-04, 03:01:00,VALID,917.713,VALID,0,VALID,99.807,VALID,-0.0169808,VALID,19.4007,VALID,10,VALID,0.823661,
2004-06-04, 03:02:00,VALID,917.688,VALID,0,VALID,99.7917,VALID,0,VALID,19.3846,VALID,24,VALID,0.976563,
2004-06-04, 03:03:00,VALID,917.682,VALID,0,VALID,99.8222,VALID,0,VALID,19.3716,VALID,21,VALID,0.830669,
2004-06-04, 03:04:00,VALID,917.653,VALID,0,VALID,99.8616,VALID,0.0169808,VALID,19.3754,VALID,15,VALID,0.690451,
2004-06-04, 03:05:00,VALID,917.634,VALID,0,VALID,99.8629,VALID,0.0339617,VALID,19.3523,VALID,2,VALID,0.37872,
2004-06-04, 03:06:00,VALID,917.619,VALID,0,VALID,99.91,VALID,0.0169808,VALID,19.3361,VALID,5,VALID,0.431974,
2004-06-04, 03:07:00,VALID,917.603,VALID,0,VALID,99.9354,VALID,0,VALID,19.3361,VALID,11,VALID,0.435937,
2004-06-04, 03:08:00,VALID,917.582,VALID,0,VALID,99.9481,VALID,0.0339617,VALID,19.3297,VALID,11,VALID,0.306021,
2004-06-04, 03:09:00,VALID,917.576,VALID,0,VALID,99.9647,VALID,0.0169808,VALID,19.3398,VALID,11,VALID,0.397693,
2004-06-04, 03:10:00,VALID,917.58,VALID,0,VALID,99.943,VALID,0,VALID,19.3294,VALID,8,VALID,0.509201,
2004-06-04, 03:11:00,VALID,917.568,VALID,0,VALID,99.9379,VALID,0,VALID,19.3334,VALID,3,VALID,0.373285,
2004-06-04, 03:12:00,VALID,917.562,VALID,0,VALID,99.9023,VALID,0,VALID,19.3359,VALID,7,VALID,0.708031,
2004-06-04, 03:13:00,VALID,917.566,VALID,0,VALID,99.8489,VALID,0,VALID,19.3331,VALID,354,VALID,0.832775,
2004-06-04, 03:14:00,VALID,917.55,VALID,0,VALID,99.8146,VALID,-0.0169808,VALID,19.3391,VALID,9,VALID,0.818359,
2004-06-04, 03:15:00,VALID,917.546,VALID,0,VALID,99.821,VALID,0,VALID,19.3557,VALID,10,VALID,0.611049,
2004-06-04, 03:16:00,VALID,917.546,VALID,0,VALID,99.779,VALID,0.0339617,VALID,19.3754,VALID,16,VALID,0.638808,
2004-06-04, 03:17:00,VALID,917.545,VALID,0,VALID,99.7078,VALID,0.0169808,VALID,19.3818,VALID,15,VALID,0.58125,
2004-06-04, 03:18:00,VALID,917.54,VALID,0,VALID,99.5883,VALID,0.0169808,VALID,19.3818,VALID,18,VALID,0.669829,
2004-06-04, 03:19:00,VALID,917.543,VALID,0,VALID,99.5425,VALID,0.0169808,VALID,19.362,VALID,19,VALID,0.48266,
2004-06-04, 03:20:00,VALID,917.532,VALID,0,VALID,99.5158,VALID,0.0169808,VALID,19.3687,VALID,358,VALID,0.574319,
2004-06-04, 03:21:00,VALID,917.537,VALID,0,VALID,99.4853,VALID,0,VALID,19.3649,VALID,354,VALID,0.351017,
2004-06-04, 03:22:00,VALID,917.528,VALID,0,VALID,99.4458,VALID,0,VALID,19.3689,VALID,353,VALID,0.579578,
2004-06-04, 03:23:00,VALID,917.51,VALID,0,VALID,99.4217,VALID,0.0169808,VALID,19.3719,VALID,351,VALID,0.306216,
2004-06-04, 03:24:00,VALID,917.511,VALID,0,VALID,99.4585,VALID,0,VALID,19.3786,VALID,351,VALID,0.298828,
2004-06-04, 03:25:00,VALID,917.498,VALID,0,VALID,99.4179,VALID,0.0169808,VALID,19.3888,VALID,351,VALID,0.133358,
2004-06-04, 03:26:00,VALID,917.5,VALID,0,VALID,99.3746,VALID,0.0169808,VALID,19.3781,VALID,351,VALID,0.447027,
2004-06-04, 03:27:00,VALID,917.485,VALID,0,VALID,99.3581,VALID,0,VALID,19.3786,VALID,351,VALID,0.2371,
2004-06-04, 03:28:00,VALID,917.47,VALID,0,VALID,99.3021,VALID,0,VALID,19.3786,VALID,351,VALID,0.390262,
2004-06-04, 03:29:00,VALID,917.462,VALID,0,VALID,99.2335,VALID,0,VALID,19.389,VALID,351,VALID,0.296342,
2004-06-04, 03:30:00,VALID,917.472,VALID,0,VALID,99.2157,VALID,0.0339617,VALID,19.3721,VALID,330,VALID,0.50744,
2004-06-04, 03:31:00,VALID,917.475,VALID,0,VALID,99.2335,VALID,0,VALID,19.3622,VALID,253,VALID,0.429688,
2004-06-04, 03:32:00,VALID,917.459,VALID,0,VALID,99.2882,VALID,0,VALID,19.3592,VALID,246,VALID,0.320703,
2004-06-04, 03:33:00,VALID,917.466,VALID,0,VALID,99.3848,VALID,0.0169808,VALID,19.3428,VALID,246,VALID,0.247582,
2004-06-04, 03:34:00,VALID,917.46,VALID,0,VALID,99.4725,VALID,0,VALID,19.3364,VALID,247,VALID,0.0257241,